Comodoro Rivadavia, Argentina

8:46 AM America en Enero 24, 2019 (GMT +0000)
GEN. Enrique Mosconi International

Tiempo Historia de SAVC - Enero, 2019

Change the Weather History Date:

Sábado, Enero 12, 2019

  Actual Average Record
Temperature  
Temperatura media 66 ° F -  
Temperatura máxima 74 ° F 78 ° F 95 ° F (2014)
Temperatura mínima 57 ° F 56 ° F 46 ° F (2015)
Growing Degree Days 16 (Base 50)    
Moisture  
Punto de rocío 36 ° F    
Average Humidity 32    
Maximum Humidity 52    
Minimum Humidity 10    
Precipitación  
Precipitación 0.00 pul 0.02 pul - ()
Presión al nivel del mar  
Presión al nivel del mar 29.74 pul    
Viento  
Velocidad del viento 11 mph ()    
Velocidad máxima del viento 24 mph    
Max Gust Speed 25 mph    
Visibilidad 11.3 Millas    
Eventos      
Averages and records for this station are not official NWS values.
T = Trace of Precipitation, MM = Missing Value Source: Averaged Metar Reports

Daily Weather History Graph

Daily Weather History Graph

Search for Another Location

Airport or City:

Astronomía

Jan. 12, 2019 Salida Puesta
Hora real 5:56 AM ART 9:19 PM ART
Crepúsculo civil 5:19 AM ART 9:56 PM ART
Crepúsculo náutico 4:30 AM ART 10:44 PM ART
Crepúsculo astronómico 3:28 AM ART 11:45 PM ART
Luna 12:10 PM ART (1/12) 12:23 AM ART (1/12)
Horas de luz 16h 37m
Horas de luz
15h 23m
Creciente, 34% of the Moon is Illuminated
Ene 12
Creciente
Ene 14
Cuarto creciente
Ene 21
Luna llena
Ene 27
Cuarto menguante
Feb 4
Nueva

Hourly Weather History & Observations

Hora (ART) Temp. Punto de rocío Humedad Presión Visibilidad Wind Dir Velocidad del viento Velocidad de ráfagas Precip Eventos Condiciones
12:00 AM 65 ° F 45 ° F 36% 29.59 pul 19 mi Oeste 9.2 mph - -   Nublado
12:00 AM 64.4 ° F 44.6 ° F 49% 29.62 pul - Oeste 9.2 mph - N/A   Despejado
1:00 AM 64.4 ° F 42.8 ° F 45% 29.62 pul - Oeste 17.3 mph - N/A   Despejado
2:00 AM 62.6 ° F 41.0 ° F 45% 29.62 pul - Oeste 24.2 mph - N/A   Despejado
3:00 AM 62 ° F 42 ° F 36% 29.60 pul 19 mi Oeste 9.2 mph - -   Despejado
3:00 AM 62.6 ° F 42.8 ° F 48% 29.62 pul - Oeste 9.2 mph - N/A   Despejado
4:00 AM 60.8 ° F 42.8 ° F 52% 29.65 pul - Oeste 16.1 mph - N/A   Despejado
5:00 AM 60.8 ° F 41.0 ° F 48% 29.68 pul - Oeste 16.1 mph - N/A   Despejado
6:00 AM 59 ° F 39 ° F 35% 29.67 pul 19 mi Oeste 11.5 mph - -   Nubes dispersas
6:00 AM 59.0 ° F 39.2 ° F 48% 29.71 pul - Oeste 11.5 mph - N/A   Despejado
7:00 AM 57.2 ° F 39.2 ° F 51% 29.74 pul - Oeste 16.1 mph - N/A   Despejado
8:00 AM 59.0 ° F 32.0 ° F 36% 29.74 pul - Oeste 20.7 mph - N/A   Despejado
9:00 AM 62 ° F 32 ° F 21% 29.73 pul 19 mi Oeste 16.1 mph - -   Despejado
9:00 AM 60.8 ° F 32.0 ° F 34% 29.77 pul - Oeste 16.1 mph - N/A   Despejado
10:00 AM 62.6 ° F 30.2 ° F 30% 29.77 pul 6.2 mi Oeste 17.3 mph - N/A   Parcialmente nublado
11:00 AM 66.2 ° F 32.0 ° F 28% 29.77 pul 6.2 mi OSO 12.7 mph - N/A   Parcialmente nublado
12:00 PM 67 ° F 29 ° F 14% 29.74 pul 19 mi Oeste 12.7 mph - -   Nubes dispersas
12:00 PM 66.2 ° F 28.4 ° F 24% 29.77 pul 6.2 mi Oeste 12.7 mph 25.3 mph N/A   Parcialmente nublado
1:00 PM 69.8 ° F 32.0 ° F 25% 29.77 pul 6.2 mi OSO 11.5 mph - N/A   Parcialmente nublado
2:00 PM 69.8 ° F 30.2 ° F 23% 29.77 pul 6.2 mi OSO 11.5 mph - N/A   Nubes dispersas
3:00 PM 74 ° F 28 ° F 10% 29.73 pul 19 mi Oeste 13.8 mph - -   Nubes dispersas
3:00 PM 73.4 ° F 28.4 ° F 19% 29.77 pul 6.2 mi Oeste 13.8 mph - N/A   Parcialmente nublado
4:00 PM 69.8 ° F 37.4 ° F 31% 29.80 pul 6.2 mi NE 10.4 mph - N/A   Parcialmente nublado
5:00 PM 69.8 ° F 35.6 ° F 28% 29.80 pul 6.2 mi ENE 13.8 mph - N/A   Nubes dispersas
6:00 PM 68 ° F 35 ° F 18% 29.78 pul 19 mi NE 13.8 mph - -   Nubes dispersas
6:00 PM 68.0 ° F 33.8 ° F 28% 29.83 pul 6.2 mi NE 13.8 mph - N/A   Parcialmente nublado
7:00 PM 69.8 ° F 30.2 ° F 23% 29.83 pul 6.2 mi ENE 10.4 mph - N/A   Parcialmente nublado
8:00 PM 69.8 ° F 33.8 ° F 27% 29.83 pul 6.2 mi NE 6.9 mph - N/A   Parcialmente nublado
9:00 PM 70 ° F 35 ° F 17% 29.83 pul 19 mi OSO 4.6 mph - -   Nubes dispersas
9:00 PM 69.8 ° F 35.6 ° F 28% 29.86 pul 6.2 mi OSO 4.6 mph - N/A   Parcialmente nublado
10:00 PM 69.8 ° F 33.8 ° F 27% 29.89 pul - ONO 3.5 mph - N/A   Despejado
11:00 PM 64.4 ° F 33.8 ° F 32% 29.92 pul - OSO 4.6 mph - N/A   Despejado